H1 CPF 2 NER 2024 8 19 9 232 01 glonass143 H2 2007501 9143 46805 2024 8 19 0 0 0 2024 8 22 23 45 0 900 1 1 0 0 0 1 H9 10 0 60541 0.00000 0 -9166964.134 6301959.432 -22938805.081 10 0 60541 900.00000 0 -10362230.477 3728154.979 -22994229.198 10 0 60541 1800.00000 0 -11731243.723 1266318.777 -22602441.928 10 0 60541 2700.00000 0 -13234771.328 -1025933.821 -21771143.990 10 0 60541 3600.00000 0 -14824528.792 -3099328.966 -20516583.390 10 0 60541 4500.00000 0 -16445128.918 -4914742.646 -18863232.951 10 0 60541 5400.00000 0 -18036347.157 -6444576.770 -16843308.118 10 0 60541 6300.00000 0 -19535608.035 -7673647.154 -14496134.686 10 0 60541 7200.00000 0 -20880588.281 -8599548.075 -11867378.989 10 0 60541 8100.00000 0 -22011827.426 -9232480.039 -9008155.767 10 0 60541 9000.00000 0 -22875236.330 -9594549.958 -5974031.226 10 0 60541 9900.00000 0 -23424398.373 -9718574.971 -2823940.978 10 0 60541 10800.00000 0 -23622566.831 -9646441.980 380955.904 10 0 60541 11700.00000 0 -23444274.725 -9427093.446 3578464.213 10 0 60541 12600.00000 0 -22876489.788 -9114225.552 6706558.077 10 0 60541 13500.00000 0 -21919266.275 -8763796.709 9704581.105 10 0 60541 14400.00000 0 -20585866.456 -8431452.042 12514418.027 10 0 60541 15300.00000 0 -18902346.760 -8169972.771 15081615.348 10 0 60541 16200.00000 0 -16906625.802 -8026858.059 17356429.786 10 0 60541 17100.00000 0 -14647072.895 -8042141.089 19294784.823 10 0 60541 18000.00000 0 -12180675.450 -8246531.157 20859117.600 10 0 60541 18900.00000 0 -9570860.810 -8659959.817 22019100.617 10 0 60541 19800.00000 0 -6885062.122 -9290592.245 22752225.036 10 0 60541 20700.00000 0 -4192128.245 -10134345.662 23044234.959 10 0 60541 21600.00000 0 -1559683.951 -11174935.642 22889404.680 10 0 60541 22500.00000 0 948451.406 -12384449.337 22290653.679 10 0 60541 23400.00000 0 3274680.835 -13724422.823 21259496.879 10 0 60541 24300.00000 0 5369783.097 -15147378.811 19815830.575 10 0 60541 25200.00000 0 7194714.043 -16598761.810 17987557.314 10 0 60541 26100.00000 0 8721981.655 -18019190.968 15810055.939 10 0 60541 27000.00000 0 9936538.047 -19346937.263 13325505.937 10 0 60541 27900.00000 0 10836151.553 -20520521.902 10582078.027 10 0 60541 28800.00000 0 11431243.580 -21481327.105 7633005.834 10 0 60541 29700.00000 0 11744197.269 -22176109.424 4535555.928 10 0 60541 30600.00000 0 11808167.329 -22559309.277 1349915.937 10 0 60541 31500.00000 0 11665441.483 -22595058.497 -1861977.632 10 0 60541 32400.00000 0 11365423.234 -22258800.090 -5037648.655 10 0 60541 33300.00000 0 10962321.826 -21538450.596 -8115303.580 10 0 60541 34200.00000 0 10512648.040 -20435054.641 -11035041.817 10 0 60541 35100.00000 0 10072622.743 -18962902.861 -13740029.824 10 0 60541 36000.00000 0 9695609.022 -17149107.082 -16177615.105 10 0 60541 36900.00000 0 9429677.627 -15032649.797 -18300357.596 10 0 60541 37800.00000 0 9315409.763 -12662947.205 -20066957.766 10 0 60541 38700.00000 0 9384030.968 -10097985.704 -21443063.048 10 0 60541 39600.00000 0 9655955.638 -7402109.627 -22401936.781 10 0 60541 40500.00000 0 10139804.107 -4643552.609 -22924976.810 10 0 60541 41400.00000 0 10831934.065 -1891815.474 -23002073.978 10 0 60541 42300.00000 0 11716506.175 785000.146 -22631803.942 10 0 60541 43200.00000 0 12766081.171 3322791.761 -21821449.089 10 0 60541 44100.00000 0 13942723.197 5663881.830 -20586850.552 10 0 60541 45000.00000 0 15199562.879 7759169.214 -18952093.650 10 0 60541 45900.00000 0 16482754.174 9569917.737 -16949033.184 10 0 60541 46800.00000 0 17733742.607 11069108.683 -14616668.126 10 0 60541 47700.00000 0 18891749.281 12242302.330 -12000378.098 10 0 60541 48600.00000 0 19896366.100 13087974.323 -9151036.729 10 0 60541 49500.00000 0 20690152.930 13617314.645 -6124019.330 10 0 60541 50400.00000 0 21221127.359 13853499.544 -2978124.459 10 0 60541 51300.00000 0 21445042.340 13830468.765 225569.422 10 0 60541 52200.00000 0 21327355.919 13591261.152 3424889.781 10 0 60541 53100.00000 0 20844810.297 13185980.045 6557775.102 10 0 60541 54000.00000 0 19986553.909 12669475.261 9563475.774 10 0 60541 54900.00000 0 18754759.409 12098840.050 12383727.589 10 0 60541 55800.00000 0 17164711.568 11530828.891 14963875.316 10 0 60541 56700.00000 0 15244361.134 11019305.023 17253925.059 10 0 60541 57600.00000 0 13033362.897 10612825.014 19209505.657 10 0 60541 58500.00000 0 10581637.442 10352461.706 20792721.233 10 0 60541 59400.00000 0 7947515.662 10269956.754 21972879.260 10 0 60541 60300.00000 0 5195542.097 10386280.058 22727080.822 10 0 60541 61200.00000 0 2394027.142 10710656.525 23040662.309 10 0 60541 62100.00000 0 -387551.691 11240101.118 22907480.435 10 0 60541 63000.00000 0 -3081193.090 11959482.188 22330035.189 10 0 60541 63900.00000 0 -5622951.551 12842111.189 21319428.126 10 0 60541 64800.00000 0 -7955347.533 13850835.076 19895156.272 10 0 60541 65700.00000 0 -10029509.149 14939586.750 18084744.745 10 0 60541 66600.00000 0 -11806957.158 16055329.679 15923224.199 10 0 60541 67500.00000 0 -13260959.547 17140316.137 13452462.049 10 0 60541 68400.00000 0 -14377399.541 18134564.988 10720359.285 10 0 60541 69300.00000 0 -15155120.976 18978455.241 7779927.559 10 0 60541 70200.00000 0 -15605736.684 19615326.241 4688263.727 10 0 60541 71100.00000 0 -15752908.069 19993974.493 1505441.405 10 0 60541 72000.00000 0 -15631126.386 20070940.994 -1706658.866 10 0 60541 72900.00000 0 -15284047.451 19812491.404 -4885557.718 10 0 60541 73800.00000 0 -14762450.590 19196204.097 -7969399.174 10 0 60541 74700.00000 0 -14121908.796 18212097.551 -10898162.255 10 0 60541 75600.00000 0 -13420269.466 16863248.077 -13614837.452 10 0 60541 76500.00000 0 -12715053.223 15165870.447 -16066544.218 10 0 60541 77400.00000 0 -12060881.802 13148856.857 -18205566.877 10 0 60541 78300.00000 0 -11507044.677 10852792.668 -19990288.208 10 0 60541 79200.00000 0 -11095307.971 8328489.460 -21386002.160 10 0 60541 80100.00000 0 -10858058.785 5635096.406 -22365589.781 10 0 60541 81000.00000 0 -10816863.556 2837868.547 -22910045.351 10 0 60541 81900.00000 0 -10981501.359 5684.921 -23008842.779 10 0 60541 82800.00000 0 -11349512.780 -2791580.205 -22660135.576 10 0 60541 83700.00000 0 -11906283.096 -5485723.805 -21870786.990 10 0 60541 84600.00000 0 -12625655.881 -8012807.736 -20656230.163 10 0 60541 85500.00000 0 -13471050.737 -10315572.177 -19040161.480 10 0 60542 0.00000 0 -14397037.555 -12345569.119 -17054073.590 10 0 60542 900.00000 0 -15351301.068 -14064929.166 -14736636.354 10 0 60542 1800.00000 0 -16276911.306 -15447686.647 -12132940.734 10 0 60542 2700.00000 0 -17114805.596 -16480612.864 -9293617.029 10 0 60542 3600.00000 0 -17806376.051 -17163521.559 -6273847.370 10 0 60542 4500.00000 0 -18296053.751 -17509036.696 -3132290.950 10 0 60542 5400.00000 0 -18533780.489 -17541833.869 70056.710 10 0 60542 6300.00000 0 -18477263.861 -17297388.832 3271048.094 10 0 60542 7200.00000 0 -18093920.631 -16820287.232 6408588.397 10 0 60542 8100.00000 0 -17362426.549 -16162167.844 9421837.149 10 0 60542 9000.00000 0 -16273807.332 -15379386.749 12252383.536 10 0 60542 9900.00000 0 -14832024.831 -14530501.291 14845372.852 10 0 60542 10800.00000 0 -13054033.457 -13673679.887 17150562.711 10 0 60542 11700.00000 0 -10969304.004 -12864146.500 19123289.198 10 0 60542 12600.00000 0 -8618834.003 -12151766.856 20725325.026 10 0 60542 13500.00000 0 -6053684.939 -11578877.268 21925613.889 10 0 60542 14400.00000 0 -3333105.983 -11178446.708 22700867.651 10 0 60542 15300.00000 0 -522320.909 -10972648.745 23036015.448 10 0 60542 16200.00000 0 2309931.454 -10971902.966 22924496.469 10 0 60542 17100.00000 0 5094002.743 -11174426.070 22368390.894 10 0 60542 18000.00000 0 7761979.982 -11566311.697 21378386.261 10 0 60542 18900.00000 0 10250261.548 -12122136.231 19973579.357 10 0 60542 19800.00000 0 12501958.454 -12806065.925 18181116.621 10 0 60542 20700.00000 0 14469022.011 -13573419.793 16035678.991 10 0 60542 21600.00000 0 16114009.961 -14372623.462 13578819.999 10 0 60542 22500.00000 0 17411417.820 -15147472.605 10858168.810 10 0 60542 23400.00000 0 18348519.911 -15839611.113 7926512.729 10 0 60542 24300.00000 0 18925684.921 -16391119.705 4840776.262 10 0 60542 25200.00000 0 19156152.711 -16747105.482 1660916.172 10 0 60542 26100.00000 0 19065281.737 -16858182.415 -1551245.939 10 0 60542 27000.00000 0 18689298.946 -16682736.902 -4733230.469 10 0 60542 27900.00000 0 18073605.155 -16188881.340 -7823121.978 10 0 60542 28800.00000 0 17270707.931 -15356011.631 -10760781.923 10 0 60542 29700.00000 0 16337869.994 -14175901.271 -13489027.456 10 0 60542 30600.00000 0 15334573.268 -12653284.283 -15954752.356 10 0 60542 31500.00000 0 14319906.620 -10805901.037 -18109967.437 10 0 60542 32400.00000 0 13349988.394 -8664003.776 -19912739.556 10 0 60542 33300.00000 0 12475533.255 -6269341.618 -21328010.597 10 0 60542 34200.00000 0 11739666.488 -3673666.812 -22328280.342 10 0 60542 35100.00000 0 11176078.103 -936824.208 -22894140.108 10 0 60542 36000.00000 0 10807594.528 1875496.725 -23014647.051 10 0 60542 36900.00000 0 10645227.708 4694253.832 -22687532.287 10 0 60542 37800.00000 0 10687741.157 7449684.665 -21919239.265 10 0 60542 38700.00000 0 10921750.513 10073970.120 -20724792.103 10 0 60542 39600.00000 0 11322353.606 12503818.898 -19127496.865 10 0 60542 40500.00000 0 11854262.675 14682865.854 -17158481.951 10 0 60542 41400.00000 0 12473390.229 16563785.221 -14856086.808 10 0 60542 42300.00000 0 13128820.990 18110031.605 -12265111.105 10 0 60542 43200.00000 0 13765086.123 19297137.392 -9435939.233 10 0 60542 44100.00000 0 14324643.281 20113513.769 -6423557.314 10 0 60542 45000.00000 0 14750457.407 20560723.365 -3286482.162 10 0 60542 45900.00000 0 14988573.056 20653214.702 -85623.217 10 0 60542 46800.00000 0 14990569.477 20417531.164 3116900.191 10 0 60542 47700.00000 0 14715794.748 19891029.126 6258963.070 10 0 60542 48600.00000 0 14133284.664 19120160.368 9279637.038 10 0 60542 49500.00000 0 13223285.400 18158391.903 12120367.395 10 0 60542 50400.00000 0 11978315.722 17063851.312 14726102.386 10 0 60542 51300.00000 0 10403723.759 15896796.830 17046353.237 10 0 60542 52200.00000 0 8517714.466 14717018.361 19036165.051 10 0 60542 53100.00000 0 6350845.861 13581278.222 20656980.529 10 0 60542 54000.00000 0 3945014.060 12540898.366 21877380.618 10 0 60542 54900.00000 0 1351968.159 11639594.538 22673688.594 10 0 60542 55800.00000 0 -1368584.679 10911647.391 23030426.539 10 0 60542 56700.00000 0 -4151206.793 10380486.533 22940615.859 10 0 60542 57600.00000 0 -6927199.450 10057746.339 22405916.185 10 0 60542 58500.00000 0 -9627213.232 9942832.894 21436599.780 10 0 60542 59400.00000 0 -12183892.616 10023020.280 20051361.439 10 0 60542 60300.00000 0 -14534446.192 10274072.509 18276966.693 10 0 60542 61200.00000 0 -16623036.714 10661365.522 16147744.116 10 0 60542 62100.00000 0 -18402892.194 11141462.739 13704930.391 10 0 60542 63000.00000 0 -19838050.417 11664078.465 10995879.678 10 0 60542 63900.00000 0 -20904664.073 12174346.877 8073151.656 10 0 60542 64800.00000 0 -21591811.807 12615301.079 4993495.207 10 0 60542 65700.00000 0 -21901780.951 12930457.374 1816747.065 10 0 60542 66600.00000 0 -21849809.816 13066394.993 -1395333.129 10 0 60542 67500.00000 0 -21463300.288 12975221.260 -4580268.384 10 0 60542 68400.00000 0 -20780533.907 12616816.679 -7676086.418 10 0 60542 69300.00000 0 -19848945.839 11960763.506 -10622533.523 10 0 60542 70200.00000 0 -18723030.003 10987874.669 -13362255.631 10 0 60542 71100.00000 0 -17461964.391 9691256.820 -15841922.666 10 0 60542 72000.00000 0 -16127057.523 8076861.102 -18013273.378 10 0 60542 72900.00000 0 -14779124.466 6163497.040 -19834059.759 10 0 60542 73800.00000 0 -13475903.660 3982307.719 -21268872.241 10 0 60542 74700.00000 0 -12269623.858 1575727.295 -22289829.523 10 0 60542 75600.00000 0 -11204823.783 -1004036.260 -22877119.703 10 0 60542 76500.00000 0 -10316516.161 -3696930.385 -23019382.502 10 0 60542 77400.00000 0 -9628772.929 -6437318.963 -22713925.574 10 0 60542 78300.00000 0 -9153790.451 -9156481.281 -21966771.141 10 0 60542 79200.00000 0 -8891473.103 -11785245.132 -20792532.542 10 0 60542 80100.00000 0 -8829551.705 -14256644.773 -19214123.495 10 0 60542 81000.00000 0 -8944230.622 -16508493.503 -17262306.095 10 0 60542 81900.00000 0 -9201335.164 -18485764.322 -14975086.618 10 0 60542 82800.00000 0 -9557909.791 -20142680.156 -12396971.137 10 0 60542 83700.00000 0 -9964198.748 -21444427.377 -9578095.652 10 0 60542 84600.00000 0 -10365924.700 -22368422.174 -6573247.869 10 0 60542 85500.00000 0 -10706768.444 -22905078.003 -3440799.901 10 0 60543 0.00000 0 -10930944.425 -23058043.382 -241573.196 10 0 60543 900.00000 0 -10985762.973 -22843901.425 2962343.770 10 0 60543 1800.00000 0 -10824070.482 -22291344.925 6108797.533 10 0 60543 2700.00000 0 -10406464.798 -21439863.075 9136773.714 10 0 60543 3600.00000 0 -9703191.836 -20337995.653 11987575.572 10 0 60543 4500.00000 0 -8695643.523 -19041228.802 14605956.055 10 0 60543 5400.00000 0 -7377393.699 -17609621.054 16941181.630 10 0 60543 6300.00000 0 -5754728.022 -16105259.194 18948007.875 10 0 60543 7200.00000 0 -3846644.968 -14589650.294 20587548.714 10 0 60543 8100.00000 0 -1684326.910 -13121158.562 21828023.329 10 0 60543 9000.00000 0 689897.871 -11752593.492 22645367.091 10 0 60543 9900.00000 0 3224060.444 -10529049.313 23023695.414 10 0 60543 10800.00000 0 5858462.762 -9486085.187 22955611.999 10 0 60543 11700.00000 0 8527917.787 -8648321.448 22442355.712 10 0 60543 12600.00000 0 11164226.854 -8028510.014 21493783.057 10 0 60543 13500.00000 0 13698793.018 -7627117.496 20128186.085 10 0 60543 14400.00000 0 16065263.241 -7432438.387 18371948.410 10 0 60543 15300.00000 0 18202090.634 -7421233.696 16259044.977 10 0 60543 16200.00000 0 20054910.843 -7559868.526 13830394.067 10 0 60543 17100.00000 0 21578633.928 -7805901.100 11133072.982 10 0 60543 18000.00000 0 22739164.383 -8110056.608 8219411.602 10 0 60543 18900.00000 0 23514677.126 -8418502.758 5145980.700 10 0 60543 19800.00000 0 23896395.587 -8675330.806 1972494.203 10 0 60543 20700.00000 0 23888838.767 -8825136.710 -1239353.209 10 0 60543 21600.00000 0 23509526.462 -8815592.402 -4427090.275 10 0 60543 22500.00000 0 22788154.804 -8599897.242 -7528691.016 10 0 60543 23400.00000 0 21765276.793 -8139004.480 -10483789.594 10 0 60543 24300.00000 0 20490543.598 -7403527.002 -13234863.578 10 0 60543 25200.00000 0 19020581.140 -6375240.117 -15728361.610 10 0 60543 26100.00000 0 17416591.988 -5048116.327 -17915752.651 10 0 60543 27000.00000 0 15741784.185 -3428846.917 -19754475.745 10 0 60543 27900.00000 0 14058735.792 -1536827.056 -21208771.434 10 0 60543 28800.00000 0 12426806.471 596396.132 -22250378.503 10 0 60543 29700.00000 0 10899705.085 2928190.290 -22859082.592 10 0 60543 30600.00000 0 9523315.401 5406375.448 -23023106.335 10 0 60543 31500.00000 0 8333870.794 7971168.787 -22739333.821 10 0 60543 32400.00000 0 7356553.811 10557455.797 -22013365.515 10 0 60543 33300.00000 0 6604578.366 13097293.440 -20859403.009 10 0 60543 34200.00000 0 6078791.862 15522541.246 -19299966.297 10 0 60543 35100.00000 0 5767812.525 17767511.032 -17365449.401 10 0 60543 36000.00000 0 5648694.722 19771525.182 -15093523.294 10 0 60543 36900.00000 0 5688092.801 21481277.244 -12528397.977 10 0 60543 37800.00000 0 5843873.022 22852896.990 -9719958.297 10 0 60543 38700.00000 0 6067104.405 23853634.423 -6722790.512 10 0 60543 39600.00000 0 6304343.386 24463093.221 -3595118.827 10 0 60543 40500.00000 0 6500114.980 24673963.053 -397672.798 10 0 60543 41400.00000 0 6599484.959 24492221.167 2807492.134 10 0 60543 42300.00000 0 6550613.928 23936795.949 5958197.856 10 0 60543 43200.00000 0 6307185.114 23038707.590 8993347.074 10 0 60543 44100.00000 0 5830603.184 21839722.827 11854103.820 10 0 60543 45000.00000 0 5091871.178 20390580.820 14485028.263 10 0 60543 45900.00000 0 4073066.298 18748864.951 16835144.279 10 0 60543 46800.00000 0 2768352.132 16976609.714 18858919.730 10 0 60543 47700.00000 0 1184484.254 15137742.627 20517141.220 10 0 60543 48600.00000 0 -659212.781 13295467.568 21777667.233 10 0 60543 49500.00000 0 -2731397.209 11509698.020 22616045.929 10 0 60543 50400.00000 0 -4989768.915 9834646.459 23015986.333 10 0 60543 51300.00000 0 -7382592.841 8316669.434 22969674.287 10 0 60543 52200.00000 0 -9850625.292 6992457.230 22477927.268 10 0 60543 53100.00000 0 -12329364.763 5887642.822 21550184.893 10 0 60543 54000.00000 0 -14751535.406 5015887.508 20204334.837 10 0 60543 54900.00000 0 -17049701.413 4378480.973 18466376.659 10 0 60543 55800.00000 0 -19158904.666 3964472.330 16369929.061 10 0 60543 56700.00000 0 -21019216.706 3751326.576 13955588.922 10 0 60543 57600.00000 0 -22578098.990 3706078.992 11270153.365 10 0 60543 58500.00000 0 -23792472.899 3786939.031 8365718.960 10 0 60543 59400.00000 0 -24630412.593 3945276.128 5298674.765 10 0 60543 60300.00000 0 -25072389.228 4127903.436 2128608.328 10 0 60543 61200.00000 0 -25112013.618 4279562.586 -1082854.103 10 0 60543 62100.00000 0 -24756245.437 4345503.616 -4273250.296 10 0 60543 63000.00000 0 -24025059.570 4274049.844 -7380503.652 10 0 60543 63900.00000 0 -22950583.240 4019037.822 -10344139.031 10 0 60543 64800.00000 0 -21575740.101 3542027.606 -13106468.157 10 0 60543 65700.00000 0 -19952458.471 2814188.253 -15613720.562 10 0 60543 66600.00000 0 -18139519.423 1817777.256 -17817097.159 10 0 60543 67500.00000 0 -16200135.710 547149.961 -19673725.303 10 0 60543 68400.00000 0 -14199363.728 -990745.007 -21147496.351 10 0 60543 69300.00000 0 -12201457.647 -2776406.328 -22209769.289 10 0 60543 70200.00000 0 -10267276.916 -4778355.928 -22839926.829 10 0 60543 71100.00000 0 -8451855.815 -6954226.928 -23025773.466 10 0 60543 72000.00000 0 -6802236.565 -9252318.666 -22763768.162 10 0 60543 72900.00000 0 -5355656.058 -11613554.241 -22059087.595 10 0 60543 73800.00000 0 -4138161.176 -13973759.166 -20925519.215 10 0 60543 74700.00000 0 -3163709.406 -16266166.228 -19385186.598 10 0 60543 75600.00000 0 -2433790.967 -18424042.265 -17468112.805 10 0 60543 76500.00000 0 -1937586.622 -20383327.475 -15211630.513 10 0 60543 77400.00000 0 -1652652.842 -22085177.308 -12659650.646 10 0 60543 78300.00000 0 -1546103.812 -23478301.162 -9861803.961 10 0 60543 79200.00000 0 -1576238.935 -24521000.577 -6872472.488 10 0 60543 80100.00000 0 -1694545.809 -25182822.256 -3749729.936 10 0 60543 81000.00000 0 -1847992.967 -25445757.424 -554211.904 10 0 60543 81900.00000 0 -1981514.622 -25304938.084 2652061.895 10 0 60543 82800.00000 0 -2040581.764 -24768801.839 5806890.303 10 0 60543 83700.00000 0 -1973750.506 -23858719.219 8849094.789 10 0 60543 84600.00000 0 -1735079.788 -22608099.860 11719701.656 10 0 60543 85500.00000 0 -1286316.208 -21061015.606 14363079.605 10 0 60544 0.00000 0 -598753.847 -19270398.695 16728010.850 10 0 60544 900.00000 0 345309.869 -17295889.474 18768676.904 10 0 60544 1800.00000 0 1551582.835 -15201425.833 20445537.537 10 0 60544 2700.00000 0 3013294.841 -13052671.269 21726091.029 10 0 60544 3600.00000 0 4711242.354 -10914390.369 22585498.584 10 0 60544 4500.00000 0 6614361.079 -8847879.212 23007062.853 10 0 60544 5400.00000 0 8680803.799 -6908556.716 22982551.618 10 0 60544 6300.00000 0 10859480.177 -5143816.103 22512360.548 10 0 60544 7200.00000 0 13091996.124 -3591224.897 21605511.780 10 0 60544 8100.00000 0 15314913.652 -2277147.557 20279487.823 10 0 60544 9000.00000 0 17462238.752 -1215847.449 18559903.229 10 0 60544 9900.00000 0 19468034.906 -409105.211 16480019.316 10 0 60544 10800.00000 0 21269054.242 153630.855 14080110.198 10 0 60544 11700.00000 0 22807277.042 494568.800 11406691.226 10 0 60544 12600.00000 0 24032253.532 646399.926 8511623.786 10 0 60544 13500.00000 0 24903149.627 650678.040 5451113.068 10 0 60544 14400.00000 0 25390410.236 555819.601 2284617.804 10 0 60544 15300.00000 0 25476969.474 414809.611 -926306.870 10 0 60544 16200.00000 0 25158955.938 282710.918 -4119210.596 10 0 60544 17100.00000 0 24445862.538 214083.222 -7231969.075 10 0 60544 18000.00000 0 23360172.936 260422.241 -10204000.748 10 0 60544 18900.00000 0 21936459.820 467728.792 -12977454.238 10 0 60544 19800.00000 0 20219992.652 874312.167 -15498342.498 10 0 60544 20700.00000 0 18264913.469 1508922.196 -17717600.654 10 0 60544 21600.00000 0 16132057.529 2389290.394 -19592046.336 10 0 60544 22500.00000 0 13886510.614 3521143.074 -21085223.382 10 0 60544 23400.00000 0 11595005.747 4897729.234 -22168112.331 10 0 60544 24300.00000 0 9323268.595 6499884.022 -22819693.993 10 0 60544 25200.00000 0 7133422.681 8296625.989 -23027355.407 10 0 60544 26100.00000 0 5081562.712 10246263.636 -22787130.704 10 0 60544 27000.00000 0 3215596.906 12297965.396 -22103772.662 10 0 60544 27900.00000 0 1573447.609 14393727.648 -20990654.031 10 0 60544 28800.00000 0 181684.235 16470658.666 -19469500.966 10 0 60544 29700.00000 0 -945355.755 18463483.168 -17569964.116 10 0 60544 30600.00000 0 -1805922.776 20307162.888 -15329035.982 10 0 60544 31500.00000 0 -2410674.786 21939523.694 -12790326.142 10 0 60544 32400.00000 0 -2781970.195 23303779.539 -10003208.652 10 0 60544 33300.00000 0 -2952665.549 24350847.846 -7021858.415 10 0 60544 34200.00000 0 -2964470.265 25041359.665 -3904195.531 10 0 60544 35100.00000 0 -2865929.304 25347280.820 -710758.396 10 0 60544 36000.00000 0 -2710120.081 25253076.597 2496472.305 10 0 60544 36900.00000 0 -2552161.826 24756371.709 5655275.620 10 0 60544 37800.00000 0 -2446643.255 23868078.461 8704394.914 10 0 60544 38700.00000 0 -2445077.587 22611988.287 11584721.703 10 0 60544 39600.00000 0 -2593492.559 21023844.187 14240435.908 10 0 60544 40500.00000 0 -2930257.177 19149933.146 16620080.895 10 0 60544 41400.00000 0 -3484236.833 17045257.364 18677553.083 10 0 60544 42300.00000 0 -4273354.534 14771360.410 20372987.661 10 0 60544 43200.00000 0 -5303619.008 12393898.402 21673524.177 10 0 60544 44100.00000 0 -6568660.993 9980056.562 22553938.006 10 0 60544 45000.00000 0 -8049797.987 7595917.661 22997126.186 10 0 60544 45900.00000 0 -9716625.888 5303890.586 22994438.773 10 0 60544 46800.00000 0 -11528114.215 3160304.705 22545849.520 10 0 60544 47700.00000 0 -13434160.788 1213268.859 21659962.457 10 0 60544 48600.00000 0 -15377542.642 -499117.036 20353853.789 10 0 60544 49500.00000 0 -17296183.412 -1950124.267 18652751.357 10 0 60544 50400.00000 0 -19125643.945 -3125275.323 16589556.865 10 0 60544 51300.00000 0 -20801733.201 -4022705.390 14204218.941 10 0 60544 52200.00000 0 -22263131.024 -4652990.520 11542968.012 10 0 60544 53100.00000 0 -23453913.186 -5038449.884 8657426.807 10 0 60544 54000.00000 0 -24325872.706 -5211951.594 5603612.949 10 0 60544 54900.00000 0 -24840539.412 -5215272.639 2440852.535 10 0 60544 55800.00000 0 -24970811.958 -5097082.468 -769374.226 10 0 60544 56700.00000 0 -24702132.605 -4910635.994 -3964632.601 10 0 60544 57600.00000 0 -24033154.137 -4711274.399 -7082754.183 10 0 60544 58500.00000 0 -22975869.792 -4553840.555 -10063054.370 10 0 60544 59400.00000 0 -21555199.829 -4490119.672 -12847521.788 10 0 60544 60300.00000 0 -19808051.473 -4566414.884 -15381955.555 10 0 60544 61200.00000 0 -17781891.392 -4821361.712 -17617027.325 10 0 60544 62100.00000 0 -15532890.513 -5284075.129 -19509246.786 10 0 60544 63000.00000 0 -13123719.052 -5972708.751 -21021811.427 10 0 60544 63900.00000 0 -10621084.282 -6893487.967 -22125323.847 10 0 60544 64800.00000 0 -8093114.235 -8040258.647 -22798362.748 10 0 60544 65700.00000 0 -5606696.681 -9394571.139 -23027896.819 10 0 60544 66600.00000 0 -3224884.389 -10926296.529 -22809533.825 10 0 60544 67500.00000 0 -1004474.523 -12594749.671 -22147600.550 10 0 60544 68400.00000 0 1006137.557 -14350272.144 -21055052.494 10 0 60544 69300.00000 0 2768741.563 -16136208.915 -19553215.487 10 0 60544 70200.00000 0 4256659.488 -17891195.931 -17671364.601 10 0 60544 71100.00000 0 5455602.083 -19551662.878 -15446148.856 10 0 60544 72000.00000 0 6364000.532 -21054446.196 -12920873.106 10 0 60544 72900.00000 0 6992801.356 -22339402.878 -10144651.349 10 0 60544 73800.00000 0 7364735.082 -23351915.538 -7171448.101 10 0 60544 74700.00000 0 7513091.282 -24045183.770 -4059026.750 10 0 60544 75600.00000 0 7480053.249 -24382205.858 -867825.607 10 0 60544 76500.00000 0 7314663.972 -24337367.947 2340216.291 10 0 60544 77400.00000 0 7070510.409 -23897574.286 5502860.528 10 0 60544 78300.00000 0 6803224.669 -23062871.475 8558774.385 10 0 60544 79200.00000 0 6567908.185 -21846540.854 11448716.279 10 0 60544 80100.00000 0 6416587.871 -20274655.406 14116678.726 10 0 60544 81000.00000 0 6395811.666 -18385119.810 16510967.090 10 0 60544 81900.00000 0 6544484.759 -16226233.647 18585193.840 10 0 60544 82800.00000 0 6892037.503 -13854837.394 20299169.771 10 0 60544 83700.00000 0 7457002.084 -11334117.870 21619675.803 10 0 60544 84600.00000 0 8246057.881 -8731163.601 22521101.304 10 0 60544 85500.00000 0 9253586.022 -6114370.680 22985937.261 99